Time,TemperatureF,DewpointF,PressureIn,WindDirection,WindDirectionDegrees,WindSpeedMPH,WindSpeedGustMPH,Humidity,HourlyPrecipIn,Conditions,Clouds,dailyrainin,SolarRadiationWatts/m^2,SoftwareType,DateUTC
2013-11-19 00:12:00,22.0,20.0,-100.00,South,177,3.0,5.0,93,0.00,,,0.00,1.000000,,2013-11-19 06:12:00,
2013-11-19 00:22:00,22.0,20.0,-100.00,South,177,3.0,5.0,93,0.00,,,0.00,1.000000,,2013-11-19 06:22:00,
2013-11-19 00:32:00,22.0,20.0,-100.00,South,177,3.0,5.0,93,0.00,,,0.00,1.000000,,2013-11-19 06:32:00,
2013-11-19 00:42:00,22.0,20.0,-100.00,South,177,3.0,5.0,93,0.00,,,0.00,1.000000,,2013-11-19 06:42:00,
2013-11-19 01:12:00,20.0,20.0,-100.00,ENE,61,0.0,3.0,98,0.00,,,-99.99,1.000000,,2013-11-19 07:12:00,
2013-11-19 01:22:00,20.0,20.0,-100.00,ENE,61,0.0,3.0,98,0.00,,,-99.99,1.000000,,2013-11-19 07:22:00,
2013-11-19 01:32:00,20.0,20.0,-100.00,ENE,61,0.0,3.0,98,0.00,,,-99.99,1.000000,,2013-11-19 07:32:00,
2013-11-19 01:42:00,20.0,20.0,-100.00,ENE,61,0.0,3.0,98,0.00,,,-99.99,1.000000,,2013-11-19 07:42:00,
2013-11-19 02:11:00,19.0,19.0,-100.00,ENE,58,4.0,4.0,100,0.00,,,0.00,1.000000,,2013-11-19 08:11:00,
2013-11-19 02:22:00,19.0,19.0,-100.00,ENE,58,4.0,4.0,100,0.00,,,0.00,1.000000,,2013-11-19 08:22:00,
2013-11-19 02:32:00,19.0,19.0,-100.00,ENE,58,4.0,4.0,100,0.00,,,0.00,1.000000,,2013-11-19 08:32:00,
2013-11-19 02:42:00,19.0,19.0,-100.00,ENE,58,4.0,4.0,100,0.00,,,0.00,1.000000,,2013-11-19 08:42:00,
2013-11-19 03:11:00,19.0,19.0,-100.00,NNE,16,3.0,5.0,100,0.00,,,0.00,1.000000,,2013-11-19 09:11:00,
2013-11-19 03:21:00,19.0,19.0,-100.00,NNE,16,3.0,5.0,100,0.00,,,0.00,1.000000,,2013-11-19 09:21:00,
2013-11-19 03:33:00,19.0,19.0,-100.00,NNE,16,3.0,5.0,100,0.00,,,0.00,1.000000,,2013-11-19 09:33:00,
2013-11-19 03:43:00,19.0,19.0,-100.00,NNE,16,3.0,5.0,100,0.00,,,0.00,1.000000,,2013-11-19 09:43:00,
2013-11-19 04:12:00,20.0,20.0,-100.00,NE,37,3.0,5.0,100,0.00,,,0.00,1.000000,,2013-11-19 10:12:00,
2013-11-19 04:23:00,20.0,20.0,-100.00,NE,37,3.0,5.0,100,0.00,,,0.00,1.000000,,2013-11-19 10:23:00,
2013-11-19 04:33:00,20.0,20.0,-100.00,NE,37,3.0,5.0,100,0.00,,,0.00,1.000000,,2013-11-19 10:33:00,
2013-11-19 04:43:00,20.0,20.0,-100.00,NE,37,3.0,5.0,100,0.00,,,0.00,1.000000,,2013-11-19 10:43:00,
2013-11-19 05:12:00,23.0,23.0,-100.00,East,81,5.0,7.0,98,0.00,,,0.00,1.000000,,2013-11-19 11:12:00,
2013-11-19 05:22:00,23.0,23.0,-100.00,East,81,5.0,7.0,98,0.00,,,0.00,1.000000,,2013-11-19 11:22:00,
2013-11-19 05:32:00,23.0,23.0,-100.00,East,81,5.0,7.0,98,0.00,,,0.00,1.000000,,2013-11-19 11:32:00,
2013-11-19 05:42:00,23.0,23.0,-100.00,East,81,5.0,7.0,98,0.00,,,0.00,1.000000,,2013-11-19 11:42:00,
2013-11-19 06:12:00,24.0,22.0,-100.00,East,96,5.0,8.0,91,0.00,,,0.00,1.000000,,2013-11-19 12:12:00,
2013-11-19 06:21:00,24.0,22.0,-100.00,East,96,5.0,8.0,91,0.00,,,0.00,1.000000,,2013-11-19 12:21:00,
2013-11-19 06:32:00,24.0,22.0,-100.00,East,96,5.0,8.0,91,0.00,,,0.00,1.000000,,2013-11-19 12:32:00,
2013-11-19 06:42:00,24.0,22.0,-100.00,East,96,5.0,8.0,91,0.00,,,0.00,1.000000,,2013-11-19 12:42:00,
2013-11-19 07:11:00,24.0,22.0,-100.00,ESE,102,6.0,9.0,90,0.00,,,0.00,1.000000,,2013-11-19 13:11:00,
2013-11-19 07:21:00,24.0,22.0,-100.00,ESE,102,6.0,9.0,90,0.00,,,0.00,1.000000,,2013-11-19 13:21:00,
2013-11-19 07:32:00,24.0,22.0,-100.00,ESE,102,6.0,9.0,90,0.00,,,0.00,1.000000,,2013-11-19 13:32:00,
2013-11-19 07:42:00,24.0,22.0,-100.00,ESE,102,6.0,9.0,90,0.00,,,0.00,1.000000,,2013-11-19 13:42:00,
2013-11-19 08:11:00,27.0,23.0,-100.00,ESE,118,6.0,14.0,86,0.00,,,0.00,16.000000,,2013-11-19 14:11:00,
2013-11-19 08:22:00,27.0,23.0,-100.00,ESE,118,6.0,14.0,86,0.00,,,0.00,16.000000,,2013-11-19 14:22:00,
2013-11-19 08:32:00,27.0,23.0,-100.00,ESE,118,6.0,14.0,86,0.00,,,0.00,16.000000,,2013-11-19 14:32:00,
2013-11-19 08:42:00,27.0,23.0,-100.00,ESE,118,6.0,14.0,86,0.00,,,0.00,16.000000,,2013-11-19 14:42:00,
2013-11-19 10:23:00,37.0,27.0,-100.00,SSE,153,10.0,15.0,67,-99.99,,,0.00,252.000000,,2013-11-19 16:23:00,
2013-11-19 10:33:00,37.0,27.0,-100.00,SSE,153,10.0,15.0,67,-99.99,,,0.00,252.000000,,2013-11-19 16:33:00,
2013-11-19 10:43:00,37.0,27.0,-100.00,SSE,153,10.0,15.0,67,-99.99,,,0.00,252.000000,,2013-11-19 16:43:00,
2013-11-19 11:43:00,44.0,27.0,-100.00,SSE,162,11.0,19.0,50,0.00,,,0.00,407.000000,,2013-11-19 17:43:00,
2013-11-19 12:12:00,46.0,27.0,-100.00,SSE,159,10.0,20.0,47,0.00,,,0.00,381.000000,,2013-11-19 18:12:00,
2013-11-19 12:22:00,46.0,27.0,-100.00,SSE,159,10.0,20.0,47,0.00,,,0.00,381.000000,,2013-11-19 18:22:00,
2013-11-19 12:32:00,46.0,27.0,-100.00,SSE,159,10.0,20.0,47,0.00,,,0.00,381.000000,,2013-11-19 18:32:00,
2013-11-19 12:42:00,46.0,27.0,-100.00,SSE,159,10.0,20.0,47,0.00,,,0.00,381.000000,,2013-11-19 18:42:00,
2013-11-19 13:21:00,47.0,26.0,-100.00,SSE,155,10.0,18.0,44,0.00,,,0.00,401.000000,,2013-11-19 19:21:00,
2013-11-19 13:32:00,47.0,26.0,-100.00,SSE,155,10.0,18.0,44,0.00,,,0.00,401.000000,,2013-11-19 19:32:00,
2013-11-19 13:42:00,47.0,26.0,-100.00,SSE,155,10.0,18.0,44,0.00,,,0.00,401.000000,,2013-11-19 19:42:00,
2013-11-19 14:21:00,48.0,28.0,-100.00,SSE,165,11.0,20.0,45,0.00,,,0.00,352.000000,,2013-11-19 20:21:00,
2013-11-19 14:32:00,48.0,28.0,-100.00,SSE,165,11.0,20.0,45,0.00,,,0.00,352.000000,,2013-11-19 20:32:00,
2013-11-19 14:42:00,48.0,28.0,-100.00,SSE,165,11.0,20.0,45,0.00,,,0.00,352.000000,,2013-11-19 20:42:00,
2013-11-19 15:21:00,48.0,27.0,-100.00,SSE,166,12.0,23.0,44,0.00,,,0.00,325.000000,,2013-11-19 21:21:00,
2013-11-19 15:33:00,48.0,27.0,-100.00,SSE,166,12.0,23.0,44,0.00,,,0.00,325.000000,,2013-11-19 21:33:00,
2013-11-19 15:43:00,48.0,27.0,-100.00,SSE,166,12.0,23.0,44,0.00,,,0.00,325.000000,,2013-11-19 21:43:00,
2013-11-19 16:13:00,46.0,27.0,-100.00,SSE,158,13.0,22.0,47,0.00,,,0.00,143.000000,,2013-11-19 22:13:00,
2013-11-19 16:23:00,46.0,27.0,-100.00,SSE,158,13.0,22.0,47,0.00,,,0.00,143.000000,,2013-11-19 22:23:00,
2013-11-19 16:33:00,46.0,27.0,-100.00,SSE,158,13.0,22.0,47,0.00,,,0.00,143.000000,,2013-11-19 22:33:00,
2013-11-19 16:42:00,46.0,27.0,-100.00,SSE,158,13.0,22.0,47,0.00,,,0.00,143.000000,,2013-11-19 22:42:00,
2013-11-19 17:22:00,45.0,28.0,-100.00,SSE,154,10.0,21.0,52,0.00,,,0.00,17.000000,,2013-11-19 23:22:00,
2013-11-19 17:32:00,45.0,28.0,-100.00,SSE,154,10.0,21.0,52,0.00,,,0.00,17.000000,,2013-11-19 23:32:00,
2013-11-19 17:43:00,45.0,28.0,-100.00,SSE,154,10.0,21.0,52,0.00,,,0.00,17.000000,,2013-11-19 23:43:00,
2013-11-19 18:11:00,44.0,28.0,-100.00,SSE,162,9.0,19.0,54,0.00,,,0.00,1.000000,,2013-11-20 00:11:00,
2013-11-19 18:21:00,44.0,28.0,-100.00,SSE,162,9.0,19.0,54,0.00,,,0.00,1.000000,,2013-11-20 00:21:00,
2013-11-19 18:32:00,44.0,28.0,-100.00,SSE,162,9.0,19.0,54,0.00,,,0.00,1.000000,,2013-11-20 00:32:00,
2013-11-19 18:42:00,44.0,28.0,-100.00,SSE,162,9.0,19.0,54,0.00,,,0.00,1.000000,,2013-11-20 00:42:00,
2013-11-19 19:11:00,44.0,29.0,-100.00,SSE,163,12.0,24.0,55,0.00,,,0.00,1.000000,,2013-11-20 01:11:00,
2013-11-19 19:22:00,44.0,29.0,-100.00,SSE,163,12.0,24.0,55,0.00,,,0.00,1.000000,,2013-11-20 01:22:00,
2013-11-19 19:32:00,44.0,29.0,-100.00,SSE,163,12.0,24.0,55,0.00,,,0.00,1.000000,,2013-11-20 01:32:00,
2013-11-19 19:42:00,44.0,29.0,-100.00,SSE,163,12.0,24.0,55,0.00,,,0.00,1.000000,,2013-11-20 01:42:00,
2013-11-19 20:11:00,43.0,29.0,-100.00,SSE,164,12.0,23.0,58,0.00,,,0.00,1.000000,,2013-11-20 02:11:00,
2013-11-19 20:22:00,43.0,29.0,-100.00,SSE,164,12.0,23.0,58,0.00,,,0.00,1.000000,,2013-11-20 02:22:00,
2013-11-19 20:32:00,43.0,29.0,-100.00,SSE,164,12.0,23.0,58,0.00,,,0.00,1.000000,,2013-11-20 02:32:00,
2013-11-19 20:42:00,43.0,29.0,-100.00,SSE,164,12.0,23.0,58,0.00,,,0.00,1.000000,,2013-11-20 02:42:00,
2013-11-19 21:11:00,43.0,29.0,-100.00,South,170,13.0,25.0,58,0.00,,,0.00,1.000000,,2013-11-20 03:11:00,
2013-11-19 21:21:00,43.0,29.0,-100.00,South,170,13.0,25.0,58,0.00,,,0.00,1.000000,,2013-11-20 03:21:00,
2013-11-19 21:34:00,43.0,29.0,-100.00,South,170,13.0,25.0,58,0.00,,,0.00,1.000000,,2013-11-20 03:34:00,
2013-11-19 21:44:00,43.0,29.0,-100.00,South,170,13.0,25.0,58,0.00,,,0.00,1.000000,,2013-11-20 03:44:00,
2013-11-19 22:13:00,44.0,30.0,-100.00,South,173,11.0,22.0,57,0.00,,,0.00,1.000000,,2013-11-20 04:13:00,
2013-11-19 22:23:00,44.0,30.0,-100.00,South,173,11.0,22.0,57,0.00,,,0.00,1.000000,,2013-11-20 04:23:00,
2013-11-19 22:33:00,44.0,30.0,-100.00,South,173,11.0,22.0,57,0.00,,,0.00,1.000000,,2013-11-20 04:33:00,
2013-11-19 22:43:00,44.0,30.0,-100.00,South,173,11.0,22.0,57,0.00,,,0.00,1.000000,,2013-11-20 04:43:00,
2013-11-19 23:12:00,44.0,29.0,-100.00,South,180,9.0,20.0,56,0.00,,,0.00,1.000000,,2013-11-20 05:12:00,
2013-11-19 23:22:00,44.0,29.0,-100.00,South,180,9.0,20.0,56,0.00,,,0.00,1.000000,,2013-11-20 05:22:00,
2013-11-19 23:33:00,44.0,29.0,-100.00,South,180,9.0,20.0,56,0.00,,,0.00,1.000000,,2013-11-20 05:33:00,
2013-11-19 23:43:00,44.0,29.0,-100.00,South,180,9.0,20.0,56,0.00,,,0.00,1.000000,,2013-11-20 05:43:00,